Location: Newark
(52.4787°S, 179.0532°W)
Time: 04:35:16
(UTC+00:00)

Transit 2A Rocket - Pass Details

Date: 27 November 2019
Orbit: 594 x 909 km, 66.7° (Epoch: 05 December)

Event Time Altitude Azimuth Distance (km) Brightness Sun altitude
Rises 19:26:15 0° 340° (NNW) 3,349 8.2 32.1°
Reaches altitude 10° 19:28:39 10° 344° (NNW) 2,464 7.6 32.5°
Maximum altitude 19:34:15 55° 60° (ENE) 1,064 7.2 33.3°
Drops below altitude 10° 19:40:12 10° 135° (SE) 2,617 8.3 34.2°
Sets 19:42:49 0° 139° (SE) 3,573 8.8 34.6°
